This demonstration page uses our WeatherBlox Daily Observations layout. Learn more.

Left ArrowRight Arrow

41.86663, -103.66717

Hourly Observations for September 26, 2015

Temp ( °F °C ) Dew Point ( °F °C ) Humidity (%) Winds ( mph kmh ) Pressure ( in mb ) Visibility ( mi km ) Precip ( " mm )
12:29 am 00:29 Mostly Cloudy 56 13.3 54 12.2 93 93 E 9 15 30.15 1021 8 13 N/A
12:38 am 00:38 Cloudy 55 13 54 12 94 94 ESE 8 13 30.15 1021 8 13 N/A
12:53 am 00:53 Cloudy 56 13.3 55 12.8 97 97 E 8 13 30.15 1021 7 11 N/A
1:06 am 01:06 Cloudy 57 13.9 55 12.8 93 93 ESE 7 11 30.12 1020 7 11 N/A
1:45 am 01:45 Partly Cloudy with Mist and Fog 56 13.3 54 12.2 93 93 ESE 9 15 30.15 1021 4 6 N/A
1:53 am 01:53 Mostly Clear with Mist and Fog 56 13.3 54 12.2 93 93 ESE 9 15 30.13 1020 4 6 N/A
2:46 am 02:46 Mostly Cloudy 57 13.9 55 12.8 93 93 ESE 10 17 30.09 1019 8 13 N/A
2:53 am 02:53 Mostly Cloudy 57 13.9 55 12.8 93 93 ESE 10 17 30.09 1019 8 13 N/A
3:53 am 03:53 Cloudy 57 13.9 55 12.8 93 93 ESE 7 11 30.08 1019 7 11 N/A
4:53 am 04:53 Cloudy 57 13.9 55 12.8 93 93 SE 7 11 30.08 1019 8 13 N/A
5:53 am 05:53 Cloudy 58 14.4 55 12.8 90 90 SSE 9 15 30.08 1019 10 16 N/A
6:53 am 06:53 Cloudy 58 14.4 54 12.2 87 87 SSE 12 19 30.09 1019 10 16 N/A
7:53 am 07:53 Cloudy 58 14.4 53 11.7 84 84 SSE 12 19 30.09 1019 10 16 N/A
8:53 am 08:53 Cloudy 62 16.7 54 12.2 75 75 SSE 14 22 30.07 1018 10 16 N/A
9:25 am 09:25 Mostly Cloudy 64 17.8 54 12.2 70 70 SSE 13 20 29.97 1015 10 16 N/A
9:34 am 09:34 Partly Cloudy 64 18 54 12 68 68 SSE 13 20 29.97 1015 10 16 N/A
9:53 am 09:53 Sunny 65 18.3 54 12.2 68 68 SSE 15 24 30.07 1018 10 16 N/A
10:53 am 10:53 Sunny 69 20.6 54 12.2 59 59 S 16 26 30.04 1017 10 16 N/A
11:53 am 11:53 Sunny 73 22.8 55 12.8 53 53 SE 14 22 30.01 1016 10 16 N/A
12:53 pm 12:53 Sunny 77 25 54 12.2 45 45 SE 15 24 29.96 1015 10 16 N/A
1:53 pm 13:53 Sunny 81 27.2 53 11.7 38 38 SE 15 24 29.92 1013 10 16 N/A
2:53 pm 14:53 Sunny 84 28.9 50 10 31 31 SSE 13 20 29.88 1012 10 16 N/A
3:53 pm 15:53 Sunny 84 28.9 49 9.4 30 30 SE 17 28 29.85 1011 10 16 N/A
4:53 pm 16:53 Sunny 83 28.3 49 9.4 31 31 SSE 18 30 29.84 1010 10 16 N/A
5:53 pm 17:53 Sunny 79 26.1 51 10.6 38 38 SE 12 19 29.84 1011 10 16 N/A
6:53 pm 18:53 Clear 73 22.8 50 10 44 44 SE 13 20 29.85 1011 10 16 N/A
7:53 pm 19:53 Clear 66 18.9 51 10.6 59 59 ESE 9 15 29.88 1012 10 16 N/A
8:53 pm 20:53 Clear 63 17.2 51 10.6 65 65 undefined N/A 29.90 1012 10 16 N/A
9:53 pm 21:53 Clear 61 16.1 51 10.6 70 70 E 9 15 29.90 1012 10 16 N/A
10:53 pm 22:53 Clear 60 15.6 52 11.1 75 75 E 8 13 29.88 1012 10 16 N/A
11:53 pm 23:53 Clear 59 15 52 11.1 78 78 E 9 15 29.86 1011 10 16 N/A

Powered by AerisWeather